Погода в Белолуцке

Украина / Луганская область     49°41′56″N   39°01′41″E
темп.,
°C
ветер,
м/с
пор.,
м/с
влажн.,
%
обл.,
%
осадки,
мм/ч
давл.,
гПа
погр.,
м
26 февраля, пт
пт2623:00+2з51098100 0.3 1022272
02:00+2з4999100 0.5 1021203
05:00+2з3699100 0.6 1020121
08:00+2зсз4899100 1.1 1020150
11:00+5зсз510100100 0.0 1020236
14:00+6з51298100 0.0 1018443
17:00+4з7139698 0.0 1016462
20:00+4з6129699 0.0 1015367
27 февраля, сб
сб2723:00+3з51196100 0.0 1014332
02:00+2з51195100 0.0 1014366
05:00+2з41095100 0.1 1012415
08:00+2з51093100 0.1 1012579
11:00+3з61087100 0.0 1011716
14:00+4зсз6983100 0.0 1011817
17:00+2зсз4109190 0.1 1011478
20:00+1зсз599791 0.1 1012447
28 февраля, вс
вс2823:00+1зсз4898100 0.1 1013368
02:00+1сз4797100 0.2 1014422
05:000сз3793100 0.1 1015365
08:00+1с4689100 0.1 1016621
11:00+1ссз567288 0.0 1017773
14:00+1ссз567191 0.0 1017847
17:00−1ссз477786 0.0 1018739
20:00−1ссз368392 0.0 1020657
1 марта, пн
пн123:00−2с358385 0.0 1021564
02:00−3с238781 0.0 1023274
05:00−2с2483100 0.1 1024445
08:00−2ссв347496 0.1 1025611
11:00−1ссв346577 0.0 1026817
14:000с336283 0.0 1027918
17:00−2с237296 0.0 102853
20:00−3ссв127572 0.0 103036
2 марта, вт
вт223:00−3зсз00750 0.0 103121
02:00−3з22750 0.0 103186
05:00−3з367867 0.0 1030250
08:00−1з587283 0.0 1029529
11:00+2з6964100 0.0 1027903
14:00+2з71067100 0.0 10241047
17:00+1з71380100 0.0 1021702
20:00+1зсз71297100 0.1 1021597